Location: Makanda
(37.6176°N, 89.2090°W)
Time: 16:12:01
(UTC+00:00)

Cosmos 2218 Rocket - Pass Details

Date: 23 September 2019
Orbit: 956 x 1006 km, 82.9° (Epoch: 19 October)

Event Time Altitude Azimuth Distance (km) Brightness Sun altitude
Rises 01:46:26 0° 353° (N) 3,728 7.4 -22.7°
Reaches altitude 10° 01:48:59 10° 354° (N) 2,770 6.7 -23.2°
Maximum altitude 01:55:22 87° 84° (E) 994 3.9 -24.4°
Enters shadow 01:58:36 31° 172° (S) 1,645 4.9 -25.0°
